#timestamp,LO_Frequency,Hit,StdDev 
1633456815.2,286047001.4,N
1633456835.1,286047001.7,N
1633456836.0,286047001.7,N
1633456855.8,286047001.6,N
1633456875.6,286047001.6,N
1633456895.5,286047002.1,N
1633456915.3,286047002.2,N
1633456935.1,286047000.4,N
1633456955.9,286047001.0,N
1633456975.7,286047002.0,N
1633456995.6,286047002.1,N
1633457015.4,286047001.6,N
1633457035.2,286047004.3,Y
1633457055.1,286047000.4,P
1633457056.0,286047000.4,N
1633457075.8,286047002.2,P
1633457095.7,286047002.5,N
1633457115.5,286046999.9,N
1633457135.3,286047002.1,N
1633457155.2,286047002.4,N
1633457175.0,286047002.6,N
1633457175.9,286047002.6,N
1633457195.7,286047000.3,N
1633457215.6,286047002.2,N
1633457235.4,286047002.4,N
1633457255.3,286046999.9,N
1633457275.1,286047001.9,N
1633457276.0,286047001.9,N
1633457295.8,286047002.2,N
1633457315.7,286047004.4,Y
1633457335.5,286047002.2,P
1633457355.4,286047001.6,P
1633457375.2,286047002.9,P
1633457395.0,286047005.3,Y
1633457395.9,286047005.3,P
1633457415.8,286047003.1,N
1633457435.6,286047003.3,N
1633457455.4,286047004.2,Y
1633457475.3,286046998.8,P
1633457495.1,286046998.5,N
1633457515.9,286046999.5,N
1633457535.7,286046998.9,N
1633457555.5,286046997.0,N
1633457575.4,286046999.1,N
1633457595.2,286047001.2,N
1633457615.1,286046998.6,N
1633457616.0,286046998.6,N
1633457635.8,286046998.7,N
1633457655.6,286047001.1,N
1633457675.5,286047001.1,N
1633457695.3,286047000.6,N
1633457715.2,286047000.3,N
1633457735.9,286047000.1,N
1633457755.7,286047001.8,N
1633457775.6,286047002.0,N
1633457795.4,286047001.7,N
1633457815.3,286047004.0,N
1633457835.1,286047002.2,N
1633457836.0,286047002.2,N
1633457855.8,286047000.1,N
1633457875.7,286047001.3,N
1633457895.5,286047001.7,N
1633457915.3,286046999.8,N
1633457935.2,286047000.4,N
1633457955.0,286047002.4,N
1633457955.9,286047002.4,N
1633457975.8,286047001.6,N
1633457995.6,286047000.2,N
1633458015.4,286047002.2,N
1633458035.3,286047001.5,N
1633458055.1,286047001.5,N
1633458075.9,286047000.4,N
1633458095.7,286046999.8,N
1633458115.5,286047001.5,N
1633458135.4,286047001.6,N
1633458155.2,286047002.5,N
1633458175.0,286047000.7,N
1633458175.9,286047000.7,N
1633458195.8,286047000.9,N
1633458215.6,286047001.1,N
1633458235.5,286046999.4,N
1633458255.3,286046999.5,N
1633458275.1,286046999.1,N
1633458295.9,286046999.3,N
1633458315.7,286047001.2,N
1633458335.5,286046998.6,N
1633458355.4,286046996.5,N
1633458375.2,286046996.6,N
1633458395.1,286046998.7,N
1633458396.0,286046998.7,N
1633458415.8,286046998.9,N
1633458435.7,286046998.1,N
1633458455.5,286046998.7,N
1633458475.3,286046998.3,N
1633458495.2,286046998.9,N
1633458515.9,286047001.0,N
1633458535.7,286047000.4,N
1633458555.6,286046998.4,N
1633458575.4,286046999.4,N
1633458595.3,286046999.1,N
1633458615.1,286046999.1,N
1633458616.0,286046999.1,N
1633458635.8,286046998.3,N
1633458655.7,286046999.0,N
1633458675.5,286047000.8,N
1633458695.3,286046998.3,N
1633458715.2,286046996.9,N
1633458735.0,286046997.6,N
1633458735.9,286046997.6,N
1633458755.8,286046996.9,N
1633458775.6,286046995.0,Y
1633458795.4,286047000.6,P
1633458815.3,286047002.0,N
1633458835.1,286047004.1,P
1633458855.9,286047003.8,N
1633458875.7,286047002.0,N
1633458895.5,286047002.5,N
1633458915.4,286047002.7,N
1633458935.2,286047000.1,N
1633458955.0,286047002.4,N
1633458955.9,286047002.4,N
1633458975.8,286047004.0,N
1633458995.6,286047004.0,N
1633459015.5,286047004.2,N
1633459035.3,286047003.5,N
1633459055.1,286047003.5,N
1633459075.9,286047003.6,N
1633459095.7,286047003.6,N
1633459115.6,286047005.7,Y
1633459135.4,286047003.9,P
1633459155.2,286047002.0,P
1633459175.1,286047000.2,N
1633459176.0,286047000.2,N
1633459195.8,286047001.7,N
1633459215.6,286047002.1,N
1633459235.5,286046999.8,N
1633459255.3,286047002.1,N
1633459275.2,286046999.9,N
1633459295.9,286047001.8,N
1633459315.7,286047001.6,N
1633459335.6,286047003.7,Y
1633459355.4,286047000.9,P
1633459375.3,286047000.9,N
1633459395.1,286046998.2,P
1633459396.0,286046998.2,N
1633459415.8,286046998.7,N
1633459435.7,286046998.2,N
1633459455.5,286047000.7,N
1633459475.3,286046999.9,N
1633459495.2,286046998.9,N
1633459515.0,286046997.8,N
1633459515.9,286046997.8,N
1633459535.8,286046995.7,Y
1633459555.6,286046994.1,P
1633459575.4,286046994.1,N
1633459595.3,286046996.0,N
1633459615.1,286046997.5,N
1633459635.8,286046997.4,N
1633459655.7,286046993.3,Y
1633459675.5,286046994.9,P
1633459695.4,286046993.5,P
1633459715.2,286046992.3,P
1633459735.0,286046990.2,Y
1633459735.9,286046990.2,P
1633459755.8,286046995.2,N
1633459775.6,286046994.3,N
1633459795.5,286046994.2,Y
1633459815.3,286047000.5,P
1633459835.1,286046998.6,N
1633459855.9,286046999.0,N
1633459875.7,286046997.7,N
1633459895.6,286046995.1,N
1633459915.4,286046993.4,N
1633459935.2,286046992.5,N
1633459955.1,286046990.1,Y
1633459956.0,286046990.1,P
1633459975.8,286046996.2,N
1633459995.7,286046995.9,N
1633460015.5,286046993.4,N
1633460035.4,286046993.9,N
1633460055.2,286046993.6,N
1633460075.0,286046996.1,N
1633460075.9,286046996.1,N
1633460095.8,286046997.9,N
1633460115.6,286046997.2,N
1633460135.4,286046996.4,N
1633460155.3,286046996.4,N
1633460175.1,286046993.7,Y
1633460195.9,286046999.0,P
1633460215.7,286046999.0,N
1633460235.5,286046999.4,N
1633460255.4,286046998.4,N
1633460275.2,286046998.1,N
1633460295.1,286046999.9,N
1633460296.0,286046999.9,N
1633460315.8,286047004.1,N
1633460335.6,286047004.4,N
1633460355.5,286047005.9,N
1633460375.3,286047007.9,N
1633460395.2,286047010.5,N
